FW9318 Weather Reports


Display with metric or nautical units.
time (UTC)temp
F
wind
direction
speed
MPH
gust
MPH
rain 1hr
in
rain 24hr
in
rain mn
in
humidity
%
barometer
mb
20260503211552 86 0 0.0 4.0 0.00 0.00 0.00 34 1011.2
20260503211035 86 0 0.0 4.0 0.00 0.00 0.00 34 1011.2
20260503210535 86 210 0.0 0.0 0.00 0.00 0.00 34 1011.3
20260503210045 86 0 0.0 1.0 0.00 0.00 0.00 35 1011.3
20260503205535 86 0 0.0 6.0 0.00 0.00 0.00 36 1011.4
20260503205035 86 0 0.0 6.0 0.00 0.00 0.00 38 1011.4
20260503204548 85 0 0.0 8.0 0.00 0.00 0.00 34 1011.4
20260503204035 85 0 0.0 8.0 0.00 0.00 0.00 36 1011.4
20260503203535 85 75 0.0 5.0 0.00 0.00 0.00 35 1011.5
20260503203105 85 0 0.0 6.0 0.00 0.00 0.00 37 1011.6
20260503202538 84 0 0.0 6.0 0.00 0.00 0.00 41 1011.6
20260503202035 84 0 1.0 6.0 0.00 0.00 0.00 34 1011.7
20260503201553 84 0 1.0 5.0 0.00 0.00 0.00 41 1011.8
20260503201035 83 37 1.0 5.0 0.00 0.00 0.00 40 1011.8
20260503200536 84 117 0.0 5.0 0.00 0.00 0.00 38 1011.8
20260503200050 84 0 0.0 5.0 0.00 0.00 0.00 39 1011.9
20260503195535 85 0 0.0 2.0 0.00 0.00 0.00 43 1011.9
20260503195035 84 0 0.0 2.0 0.00 0.00 0.00 43 1012.0
20260503194555 83 0 0.0 3.0 0.00 0.00 0.00 42 1012.0
20260503194035 83 0 0.0 3.0 0.00 0.00 0.00 41 1012.0
20260503193536 83 0 0.0 7.0 0.00 0.00 0.00 39 1012.0
20260503193052 82 0 0.0 7.0 0.00 0.00 0.00 39 1012.1
20260503192535 81 75 0.0 7.0 0.00 0.00 0.00 38 1012.2
20260503192035 81 54 1.0 7.0 0.00 0.00 0.00 38 1012.3
20260503191549 81 0 1.0 6.0 0.00 0.00 0.00 42 1012.2
20260503191038 80 73 1.0 7.0 0.00 0.00 0.00 43 1012.3
20260503190536 81 0 0.0 7.0 0.00 0.00 0.00 41 1012.4
20260503190045 80 0 1.0 7.0 0.00 0.00 0.00 40 1012.4
20260503185535 80 103 0.0 2.0 0.00 0.00 0.00 40 1012.5
20260503185035 79 0 0.0 5.0 0.00 0.00 0.00 43 1012.3
20260503184549 79 0 0.0 5.0 0.00 0.00 0.00 44 1012.4
20260503184035 79 49 0.0 5.0 0.00 0.00 0.00 41 1012.5
20260503183534 78 51 0.0 4.0 0.00 0.00 0.00 43 1012.5
20260503183045 78 0 0.0 4.0 0.00 0.00 0.00 47 1012.7
20260503182536 77 4 0.0 3.0 0.00 0.00 0.00 49 1012.7
20260503182036 77 0 0.0 4.0 0.00 0.00 0.00 46 1012.7
20260503181559 76 61 0.0 5.0 0.00 0.00 0.00 49 1012.7
20260503181035 76 65 0.0 5.0 0.00 0.00 0.00 53 1012.7
20260503180536 76 45 0.0 5.0 0.00 0.00 0.00 48 1012.8
20260503180052 76 0 0.0 6.0 0.00 0.00 0.00 48 1012.9
20260503175535 75 0 0.0 6.0 0.00 0.00 0.00 51 1012.9
20260503175035 75 87 0.0 2.0 0.00 0.00 0.00 48 1013.0
20260503174550 75 35 0.0 1.0 0.00 0.00 0.00 54 1013.0
20260503174035 74 0 0.0 5.0 0.00 0.00 0.00 52 1013.0
20260503173535 73 0 0.0 5.0 0.00 0.00 0.00 54 1012.9
20260503173054 73 0 0.0 3.0 0.00 0.00 0.00 55 1013.0
20260503172536 72 0 0.0 7.0 0.00 0.00 0.00 55 1013.0
20260503172034 71 2 1.0 7.0 0.00 0.00 0.00 57 1013.0
20260503171542 71 60 0.0 9.0 0.00 0.00 0.00 56 1013.2
20260503171036 70 46 0.0 9.0 0.00 0.00 0.00 59 1013.0
20260503170535 70 24 2.0 8.0 0.00 0.00 0.00 57 1013.1
20260503150535 61 70 3.0 8.0 0.00 0.00 0.00 70 1013.1
20260503131038 57 51 1.0 5.0 0.00 0.00 0.00 76 1012.8
20260503130535 57 69 1.0 6.0 0.00 0.00 0.00 74 1012.8
20260503110536 59 38 1.0 9.0 0.00 0.00 0.00 73 1013.1
20260503081548 62 0 2.0 8.0 0.00 0.00 0.00 70 1013.4
20260503081035 62 68 0.0 7.0 0.00 0.00 0.00 71 1013.4
20260503080536 61 97 1.0 6.0 0.00 0.00 0.00 73 1013.4
20260503072535 62 80 2.0 7.0 0.00 0.00 0.00 74 1013.6
20260503072035 62 45 1.0 9.0 0.00 0.00 0.00 76 1013.5
20260503071558 62 70 1.0 9.0 0.00 0.00 0.00 76 1013.6
20260503071035 62 77 2.0 5.0 0.00 0.00 0.00 76 1013.5
20260503070535 62 70 1.0 7.0 0.00 0.00 0.00 76 1013.6
20260503060105 63 59 0.0 8.0 0.00 0.00 0.00 74 1013.3
20260503055035 63 59 2.0 8.0 0.00 0.00 0.00 74 1013.3
20260503054549 63 63 2.0 6.0 0.00 0.00 0.00 74 1013.3
20260503054035 62 44 2.0 5.0 0.00 0.00 0.00 76 1013.3
20260503053535 61 80 1.0 4.0 0.00 0.00 0.00 77 1013.4
20260503053048 60 44 0.0 2.0 0.00 0.00 0.00 78 1013.5
20260503052535 60 0 0.0 2.0 0.00 0.00 0.00 78 1013.7
20260503052034 60 0 0.0 1.0 0.00 0.00 0.00 78 1013.8
20260503051548 61 0 0.0 1.0 0.00 0.00 0.00 77 1013.8
20260503051034 61 0 0.0 2.0 0.00 0.00 0.00 76 1013.9
20260503050537 62 40 0.0 2.0 0.00 0.00 0.00 75 1013.8
20260503050044 62 57 0.0 2.0 0.00 0.00 0.00 76 1013.9
20260503045537 61 0 0.0 1.0 0.00 0.00 0.00 77 1013.9
20260503045036 60 0 0.0 1.0 0.00 0.00 0.00 79 1013.9
20260503044553 60 0 0.0 1.0 0.00 0.00 0.00 79 1013.6
20260503044035 60 74 0.0 1.0 0.00 0.00 0.00 79 1013.6
20260503043536 61 0 0.0 0.0 0.00 0.00 0.00 79 1013.8
20260503043054 61 0 0.0 0.0 0.00 0.00 0.00 79 1013.6
20260503042536 60 0 0.0 0.0 0.00 0.00 0.00 79 1013.8
20260503042034 60 0 0.0 0.0 0.00 0.00 0.00 79 1014.0
20260503041546 60 0 0.0 0.0 0.00 0.00 0.00 78 1014.0
20260503041035 60 0 0.0 0.0 0.00 0.00 0.00 78 1013.9
20260503040535 60 0 0.0 0.0 0.00 0.00 0.00 78 1013.9
20260503040047 60 0 0.0 0.0 0.00 0.00 0.00 79 1013.9
20260503035535 60 0 0.0 0.0 0.00 0.00 0.00 80 1013.9
20260503035036 60 0 0.0 0.0 0.00 0.00 0.00 80 1013.8
20260503034549 60 0 0.0 0.0 0.00 0.00 0.00 79 1013.7
20260503034036 60 0 0.0 0.0 0.00 0.00 0.00 79 1013.6
20260503033534 60 0 0.0 0.0 0.00 0.00 0.00 79 1013.6
20260503033056 60 0 0.0 0.0 0.00 0.00 0.00 78 1013.6
20260503032535 60 0 0.0 0.0 0.00 0.00 0.00 78 1013.5
20260503032036 61 0 0.0 1.0 0.00 0.00 0.00 78 1013.5
20260503031546 61 0 0.0 1.0 0.00 0.00 0.00 78 1013.6
20260503031034 61 0 0.0 4.0 0.00 0.00 0.00 77 1013.6
20260503030535 61 0 0.0 4.0 0.00 0.00 0.00 77 1013.4
20260503030052 61 0 0.0 2.0 0.00 0.00 0.00 77 1013.5
20260503025535 62 0 0.0 4.0 0.00 0.00 0.00 77 1013.5
20260503025035 62 217 0.0 4.0 0.00 0.00 0.00 76 1013.5
20260503024554 63 243 0.0 4.0 0.00 0.00 0.00 75 1013.5
20260503024035 63 0 0.0 3.0 0.00 0.00 0.00 75 1013.6
20260503023534 64 156 0.0 3.0 0.00 0.00 0.00 75 1013.5
20260503023101 64 0 0.0 3.0 0.00 0.00 0.00 74 1013.5
20260503022534 65 0 0.0 2.0 0.00 0.00 0.00 75 1013.4
20260503022035 66 219 0.0 0.0 0.00 0.00 0.00 74 1013.3
20260503021554 66 0 0.0 0.0 0.00 0.00 0.00 74 1013.2
20260503021034 67 0 0.0 0.0 0.00 0.00 0.00 72 1013.0
20260503020534 67 0 0.0 0.0 0.00 0.00 0.00 73 1012.8
20260503020050 67 0 0.0 1.0 0.00 0.00 0.00 71 1012.7
20260503015534 67 0 0.0 1.0 0.00 0.00 0.00 71 1012.8
20260503015035 67 0 0.0 1.0 0.00 0.00 0.00 70 1012.8
20260503014549 67 0 0.0 2.0 0.00 0.00 0.00 70 1012.7
20260503014035 67 0 0.0 2.0 0.00 0.00 0.00 70 1012.5
20260503013535 67 0 0.0 0.0 0.00 0.00 0.00 71 1012.5
20260503013058 67 0 0.0 0.0 0.00 0.00 0.00 73 1012.4
20260503012535 67 0 0.0 1.0 0.00 0.00 0.00 72 1012.5
20260503012035 67 0 0.0 1.0 0.00 0.00 0.00 72 1012.5
20260503011600 67 0 0.0 0.0 0.00 0.00 0.00 72 1012.6
20260503011036 66 0 0.0 0.0 0.00 0.00 0.00 71 1012.5
20260503010534 66 0 0.0 2.0 0.00 0.00 0.00 74 1012.5
20260503010055 66 0 0.0 2.0 0.00 0.00 0.00 72 1012.6
20260503005536 66 219 1.0 2.0 0.00 0.00 0.00 71 1012.7
20260503005035 66 0 0.0 1.0 0.00 0.00 0.00 73 1012.5
20260503004548 66 0 0.0 1.0 0.00 0.00 0.00 73 1012.5
20260503004035 66 0 0.0 1.0 0.00 0.00 0.00 73 1012.5
20260503003535 65 0 0.0 1.0 0.00 0.00 0.00 72 1012.6
20260503003108 65 222 0.0 3.0 0.00 0.00 0.00 74 1012.5
20260503002535 65 0 0.0 3.0 0.00 0.00 0.00 72 1012.5
20260503002035 65 222 1.0 3.0 0.00 0.00 0.00 71 1012.5
20260503001545 66 0 0.0 3.0 0.00 0.00 0.00 73 1012.5
20260503001036 66 0 0.0 3.0 0.00 0.00 0.00 71 1012.6
20260503000537 66 0 1.0 5.0 0.00 0.00 0.00 71 1012.6
20260503000059 66 0 2.0 5.0 0.00 0.00 0.00 71 1012.6
20260502235536 66 0 0.0 4.0 0.00 0.00 0.00 71 1012.6
20260502235036 66 211 1.0 4.0 0.00 0.00 0.00 71 1012.7
20260502234547 66 224 0.0 4.0 0.00 0.00 0.00 74 1012.7
20260502234036 66 0 0.0 4.0 0.00 0.00 0.00 72 1012.8
20260502233536 66 222 1.0 5.0 0.00 0.00 0.00 71 1012.9
20260502233051 66 231 1.0 5.0 0.00 0.00 0.00 71 1012.9
20260502232536 66 231 3.0 4.0 0.00 0.00 0.00 71 1013.0
20260502232036 66 0 1.0 4.0 0.00 0.00 0.00 70 1013.0
20260502231548 67 224 0.0 4.0 0.00 0.00 0.00 69 1013.0
20260502231037 67 245 1.0 4.0 0.00 0.00 0.00 69 1013.1
20260502230537 68 0 0.0 2.0 0.00 0.00 0.00 67 1013.2
20260502230047 68 0 0.0 0.0 0.00 0.00 0.00 66 1013.2
20260502225536 67 0 0.0 4.0 0.00 0.00 0.00 67 1013.2
20260502225037 67 0 0.0 4.0 0.00 0.00 0.00 66 1013.4
20260502224553 66 0 0.0 6.0 0.00 0.00 0.00 65 1013.4
20260502224036 66 72 0.0 6.0 0.00 0.00 0.00 65 1013.5
20260502223536 66 92 2.0 6.0 0.00 0.00 0.00 65 1013.8
20260502223050 66 0 3.0 6.0 0.00 0.00 0.00 65 1013.7
20260502222536 66 0 0.0 4.0 0.00 0.00 0.00 67 1013.8
20260502222037 66 82 0.0 4.0 0.00 0.00 0.00 68 1013.9
20260502221545 66 41 0.0 3.0 0.00 0.00 0.00 66 1013.9
20260502221037 65 0 0.0 3.0 0.00 0.00 0.00 67 1014.0
20260502220537 65 0 0.0 3.0 0.00 0.00 0.00 66 1014.2
20260502220046 65 0 0.0 5.0 0.00 0.00 0.00 68 1014.3
20260502215537 65 67 2.0 5.0 0.00 0.00 0.00 66 1014.4
20260502215037 65 0 0.0 3.0 0.00 0.00 0.00 69 1014.3
20260502214546 65 0 0.0 4.0 0.00 0.00 0.00 66 1014.3
20260502214037 65 0 1.0 4.0 0.00 0.00 0.00 65 1014.3
20260502213537 65 0 1.0 3.0 0.00 0.00 0.00 67 1014.3
20260502213054 65 0 0.0 4.0 0.00 0.00 0.00 68 1014.5
20260502212537 65 0 1.0 4.0 0.00 0.00 0.00 68 1014.4
20260502212036 65 0 0.0 1.0 0.00 0.00 0.00 65 1014.5